Year,Month,Day,Hour,Minute,Value (Times are PST for temperature in C)
2013,07,15,00,00,17.90
2013,07,15,00,01,17.90
2013,07,15,00,02,17.90
2013,07,15,00,03,17.90
2013,07,15,00,04,17.80
2013,07,15,00,05,17.80
2013,07,15,00,06,17.80
2013,07,15,00,07,17.80
2013,07,15,00,08,17.80
2013,07,15,00,09,17.80
2013,07,15,00,10,17.80
2013,07,15,00,11,17.80
2013,07,15,00,12,17.80
2013,07,15,00,13,17.80
2013,07,15,00,14,17.70
2013,07,15,00,15,17.70
2013,07,15,00,16,17.70
2013,07,15,00,17,17.70
2013,07,15,00,18,17.70
2013,07,15,00,19,17.60
2013,07,15,00,20,17.60
2013,07,15,00,21,17.60
2013,07,15,00,22,17.60
2013,07,15,00,23,17.60
2013,07,15,00,24,17.60
2013,07,15,00,25,17.50
2013,07,15,00,26,17.50
2013,07,15,00,27,17.50
2013,07,15,00,28,17.50
2013,07,15,00,29,17.50
2013,07,15,00,30,17.50
2013,07,15,00,31,17.50
2013,07,15,00,32,17.50
2013,07,15,00,33,17.50
2013,07,15,00,34,17.50
2013,07,15,00,35,17.40
2013,07,15,00,36,17.40
2013,07,15,00,37,17.40
2013,07,15,00,38,17.40
2013,07,15,00,39,17.40
2013,07,15,00,40,17.40
2013,07,15,00,41,17.40
2013,07,15,00,42,17.40
2013,07,15,00,43,17.40
2013,07,15,00,44,17.40
2013,07,15,00,45,17.40
2013,07,15,00,46,17.40
2013,07,15,00,47,17.50
2013,07,15,00,48,17.50
2013,07,15,00,49,17.50
2013,07,15,00,50,17.50
2013,07,15,00,51,17.50
2013,07,15,00,52,17.40
2013,07,15,00,53,17.40
2013,07,15,00,54,17.40
2013,07,15,00,55,17.40
2013,07,15,00,56,17.40
2013,07,15,00,57,17.40
2013,07,15,00,58,17.40
2013,07,15,00,59,17.40
2013,07,15,01,00,17.40
2013,07,15,01,01,17.40
2013,07,15,01,02,17.40
2013,07,15,01,03,17.40
2013,07,15,01,04,17.40
2013,07,15,01,05,17.40
2013,07,15,01,06,17.40
2013,07,15,01,07,17.30
2013,07,15,01,08,17.30
2013,07,15,01,09,17.30
2013,07,15,01,10,17.30
2013,07,15,01,11,17.30
2013,07,15,01,12,17.30
2013,07,15,01,13,17.30
2013,07,15,01,14,17.30
2013,07,15,01,15,17.20
2013,07,15,01,16,17.20
2013,07,15,01,17,17.30
2013,07,15,01,18,17.30
2013,07,15,01,19,17.30
2013,07,15,01,20,17.30
2013,07,15,01,21,17.30
2013,07,15,01,22,17.30
2013,07,15,01,23,17.30
2013,07,15,01,24,17.30
2013,07,15,01,25,17.30
2013,07,15,01,26,17.20
2013,07,15,01,27,17.20
2013,07,15,01,28,17.20
2013,07,15,01,29,17.20
2013,07,15,01,30,17.10
2013,07,15,01,31,17.10
2013,07,15,01,32,17.10
2013,07,15,01,33,17.10
2013,07,15,01,34,17.10
2013,07,15,01,35,17.10
2013,07,15,01,36,17.10
2013,07,15,01,37,17.10
2013,07,15,01,38,17.10
2013,07,15,01,39,17.00
2013,07,15,01,40,17.00
2013,07,15,01,41,17.00
2013,07,15,01,42,17.00
2013,07,15,01,43,17.00
2013,07,15,01,44,16.90
2013,07,15,01,45,16.90
2013,07,15,01,46,16.90
2013,07,15,01,47,16.90
2013,07,15,01,48,16.90
2013,07,15,01,49,16.90
2013,07,15,01,50,16.90
2013,07,15,01,51,16.90
2013,07,15,01,52,16.90
2013,07,15,01,53,16.90
2013,07,15,01,54,16.90
2013,07,15,01,55,16.90
2013,07,15,01,56,16.90
2013,07,15,01,57,16.90
2013,07,15,01,58,16.90
2013,07,15,01,59,16.90
2013,07,15,02,00,16.90
2013,07,15,02,01,16.90
2013,07,15,02,02,16.80
2013,07,15,02,03,16.80
2013,07,15,02,04,16.80
2013,07,15,02,05,16.80
2013,07,15,02,06,16.80
2013,07,15,02,07,16.80
2013,07,15,02,08,16.80
2013,07,15,02,09,16.80
2013,07,15,02,10,16.80
2013,07,15,02,11,16.80
2013,07,15,02,12,16.80
2013,07,15,02,13,16.80
2013,07,15,02,14,16.80
2013,07,15,02,15,16.80
2013,07,15,02,16,16.80
2013,07,15,02,17,16.80
2013,07,15,02,18,16.80
2013,07,15,02,19,16.80
2013,07,15,02,20,16.80
2013,07,15,02,21,16.80
2013,07,15,02,22,16.80
2013,07,15,02,23,16.80
2013,07,15,02,24,16.80
2013,07,15,02,25,16.70
2013,07,15,02,26,16.70
2013,07,15,02,27,16.70
2013,07,15,02,28,16.70
2013,07,15,02,29,16.70
2013,07,15,02,30,16.70
2013,07,15,02,31,16.70
2013,07,15,02,32,16.70
2013,07,15,02,33,16.70
2013,07,15,02,34,16.70
2013,07,15,02,35,16.60
2013,07,15,02,36,16.60
2013,07,15,02,37,16.60
2013,07,15,02,38,16.60
2013,07,15,02,39,16.60
2013,07,15,02,40,16.60
2013,07,15,02,41,16.60
2013,07,15,02,42,16.60
2013,07,15,02,43,16.60
2013,07,15,02,44,16.60
2013,07,15,02,45,16.60
2013,07,15,02,46,16.60
2013,07,15,02,47,16.60
2013,07,15,02,48,16.60
2013,07,15,02,49,16.50
2013,07,15,02,50,16.50
2013,07,15,02,51,16.40
2013,07,15,02,52,16.40
2013,07,15,02,53,16.40
2013,07,15,02,54,16.40
2013,07,15,02,55,16.40
2013,07,15,02,56,16.40
2013,07,15,02,57,16.40
2013,07,15,02,58,16.40
2013,07,15,02,59,16.40
2013,07,15,03,00,16.40
2013,07,15,03,01,16.40
2013,07,15,03,02,16.40
2013,07,15,03,03,16.40
2013,07,15,03,04,16.40
2013,07,15,03,05,16.50
2013,07,15,03,06,16.50
2013,07,15,03,07,16.50
2013,07,15,03,08,16.50
2013,07,15,03,09,16.50
2013,07,15,03,10,16.50
2013,07,15,03,11,16.50
2013,07,15,03,12,16.50
2013,07,15,03,13,16.50
2013,07,15,03,14,16.50
2013,07,15,03,15,16.50
2013,07,15,03,16,16.50
2013,07,15,03,17,16.50
2013,07,15,03,18,16.50
2013,07,15,03,19,16.50
2013,07,15,03,20,16.60
2013,07,15,03,21,16.60
2013,07,15,03,22,16.60
2013,07,15,03,23,16.60
2013,07,15,03,24,16.60
2013,07,15,03,25,16.60
2013,07,15,03,26,16.60
2013,07,15,03,27,16.60
2013,07,15,03,28,16.60
2013,07,15,03,29,16.60
2013,07,15,03,30,16.60
2013,07,15,03,31,16.60
2013,07,15,03,32,16.60
2013,07,15,03,33,16.50
2013,07,15,03,34,16.50
2013,07,15,03,35,16.50
2013,07,15,03,36,16.50
2013,07,15,03,37,16.50
2013,07,15,03,38,16.40
2013,07,15,03,39,16.40
2013,07,15,03,40,16.40
2013,07,15,03,41,16.40
2013,07,15,03,42,16.40
2013,07,15,03,43,16.40
2013,07,15,03,44,16.40
2013,07,15,03,45,16.40
2013,07,15,03,46,16.40
2013,07,15,03,47,16.40
2013,07,15,03,48,16.40
2013,07,15,03,49,16.40
2013,07,15,03,50,16.40
2013,07,15,03,51,16.40
2013,07,15,03,52,16.50
2013,07,15,03,53,16.50
2013,07,15,03,54,16.40
2013,07,15,03,55,16.40
2013,07,15,03,56,16.40
2013,07,15,03,57,16.50
2013,07,15,03,58,16.50
2013,07,15,03,59,16.50
2013,07,15,04,00,16.50
2013,07,15,04,01,16.50
2013,07,15,04,02,16.60
2013,07,15,04,03,16.60
2013,07,15,04,04,16.60
2013,07,15,04,05,16.60
2013,07,15,04,06,16.60
2013,07,15,04,07,16.60
2013,07,15,04,08,16.60
2013,07,15,04,09,16.60
2013,07,15,04,10,16.70
2013,07,15,04,11,16.70
2013,07,15,04,12,16.70
2013,07,15,04,13,16.70
2013,07,15,04,14,16.60
2013,07,15,04,15,16.60
2013,07,15,04,16,16.60
2013,07,15,04,17,16.60
2013,07,15,04,18,16.50
2013,07,15,04,19,16.50
2013,07,15,04,20,16.50
2013,07,15,04,21,16.40
2013,07,15,04,22,16.40
2013,07,15,04,23,16.40
2013,07,15,04,24,16.40
2013,07,15,04,25,16.40
2013,07,15,04,26,16.40
2013,07,15,04,27,16.40
2013,07,15,04,28,16.40
2013,07,15,04,29,16.40
2013,07,15,04,30,16.40
2013,07,15,04,31,16.40
2013,07,15,04,32,16.40
2013,07,15,04,33,16.40
2013,07,15,04,34,16.40
2013,07,15,04,35,16.40
2013,07,15,04,36,16.40
2013,07,15,04,37,16.40
2013,07,15,04,38,16.30
2013,07,15,04,39,16.30
2013,07,15,04,40,16.30
2013,07,15,04,41,16.30
2013,07,15,04,42,16.20
2013,07,15,04,43,16.20
2013,07,15,04,44,16.20
2013,07,15,04,45,16.20
2013,07,15,04,46,16.20
2013,07,15,04,47,16.20
2013,07,15,04,48,16.20
2013,07,15,04,49,16.10
2013,07,15,04,50,16.10
2013,07,15,04,51,16.10
2013,07,15,04,52,16.10
2013,07,15,04,53,16.00
2013,07,15,04,54,16.00
2013,07,15,04,55,16.00
2013,07,15,04,56,16.00
2013,07,15,04,57,15.90
2013,07,15,04,58,15.90
2013,07,15,04,59,15.90
2013,07,15,05,00,15.90
2013,07,15,05,01,15.90
2013,07,15,05,02,15.90
2013,07,15,05,03,15.90
2013,07,15,05,04,15.90
2013,07,15,05,05,15.80
2013,07,15,05,06,15.80
2013,07,15,05,07,15.80
2013,07,15,05,08,15.80
2013,07,15,05,09,15.80
2013,07,15,05,10,15.80
2013,07,15,05,11,15.80
2013,07,15,05,12,15.80
2013,07,15,05,13,15.80
2013,07,15,05,14,15.70
2013,07,15,05,15,15.70
2013,07,15,05,16,15.70
2013,07,15,05,17,15.70
2013,07,15,05,18,15.70
2013,07,15,05,19,15.70
2013,07,15,05,20,15.80
2013,07,15,05,21,15.80
2013,07,15,05,22,15.70
2013,07,15,05,23,15.70
2013,07,15,05,24,15.70
2013,07,15,05,25,15.70
2013,07,15,05,26,15.70
2013,07,15,05,27,15.70
2013,07,15,05,28,15.70
2013,07,15,05,29,15.70
2013,07,15,05,30,15.70
2013,07,15,05,31,15.70
2013,07,15,05,32,15.60
2013,07,15,05,33,15.60
2013,07,15,05,34,15.50
2013,07,15,05,35,15.50
2013,07,15,05,36,15.50
2013,07,15,05,37,15.40
2013,07,15,05,38,15.40
2013,07,15,05,39,15.40
2013,07,15,05,40,15.40
2013,07,15,05,41,15.40
2013,07,15,05,42,15.40
2013,07,15,05,43,15.40
2013,07,15,05,44,15.40
2013,07,15,05,45,15.50
2013,07,15,05,46,15.50
2013,07,15,05,47,15.60
2013,07,15,05,48,15.60
2013,07,15,05,49,15.60
2013,07,15,05,50,15.70
2013,07,15,05,51,15.70
2013,07,15,05,52,15.70
2013,07,15,05,53,15.70
2013,07,15,05,54,15.80
2013,07,15,05,55,15.80
2013,07,15,05,56,15.80
2013,07,15,05,57,15.80
2013,07,15,05,58,15.80
2013,07,15,05,59,15.80
2013,07,15,06,00,15.80
2013,07,15,06,01,15.80
2013,07,15,06,02,15.80
2013,07,15,06,03,15.80
2013,07,15,06,04,15.80
2013,07,15,06,05,15.80
2013,07,15,06,06,15.80
2013,07,15,06,07,15.80
2013,07,15,06,08,15.80
2013,07,15,06,09,15.80
2013,07,15,06,10,15.90
2013,07,15,06,11,15.90
2013,07,15,06,12,15.90
2013,07,15,06,13,15.90
2013,07,15,06,14,15.90
2013,07,15,06,15,16.00
2013,07,15,06,16,16.00
2013,07,15,06,17,16.00
2013,07,15,06,18,16.00
2013,07,15,06,19,16.10
2013,07,15,06,20,16.10
2013,07,15,06,21,16.20
2013,07,15,06,22,16.20
2013,07,15,06,23,16.20
2013,07,15,06,24,16.20
2013,07,15,06,25,16.20
2013,07,15,06,26,16.20
2013,07,15,06,27,16.20
2013,07,15,06,28,16.20
2013,07,15,06,29,16.20
2013,07,15,06,30,16.20
2013,07,15,06,31,16.20
2013,07,15,06,32,16.20
2013,07,15,06,33,16.20
2013,07,15,06,34,16.20
2013,07,15,06,35,16.20
2013,07,15,06,36,16.20
2013,07,15,06,37,16.20
2013,07,15,06,38,16.20
2013,07,15,06,39,16.20
2013,07,15,06,40,16.20
2013,07,15,06,41,16.30
2013,07,15,06,42,16.30
2013,07,15,06,43,16.30
2013,07,15,06,44,16.30
2013,07,15,06,45,16.30
2013,07,15,06,46,16.30
2013,07,15,06,47,16.30
2013,07,15,06,48,16.30
2013,07,15,06,49,16.30
2013,07,15,06,50,16.30
2013,07,15,06,51,16.40
2013,07,15,06,52,16.40
2013,07,15,06,53,16.40
2013,07,15,06,54,16.40
2013,07,15,06,55,16.50
2013,07,15,06,56,16.60
2013,07,15,06,57,16.60
2013,07,15,06,58,16.60
2013,07,15,06,59,16.60
2013,07,15,07,00,16.70
2013,07,15,07,01,16.70
2013,07,15,07,02,16.80
2013,07,15,07,03,16.70
2013,07,15,07,04,16.70
2013,07,15,07,05,16.80
2013,07,15,07,06,16.80
2013,07,15,07,07,16.80
2013,07,15,07,08,16.90
2013,07,15,07,09,16.90
2013,07,15,07,10,16.90
2013,07,15,07,11,16.90
2013,07,15,07,12,16.90
2013,07,15,07,13,16.90
2013,07,15,07,14,16.90
2013,07,15,07,15,16.80
2013,07,15,07,16,16.90
2013,07,15,07,17,16.90
2013,07,15,07,18,16.90
2013,07,15,07,19,16.90
2013,07,15,07,20,16.90
2013,07,15,07,21,17.00
2013,07,15,07,22,17.00
2013,07,15,07,23,17.10
2013,07,15,07,24,17.10
2013,07,15,07,25,17.20
2013,07,15,07,26,17.20
2013,07,15,07,27,17.30
2013,07,15,07,28,17.30
2013,07,15,07,29,17.30
2013,07,15,07,30,17.30
2013,07,15,07,31,17.30
2013,07,15,07,32,17.30
2013,07,15,07,33,17.30
2013,07,15,07,34,17.40
2013,07,15,07,35,17.40
2013,07,15,07,36,17.40
2013,07,15,07,37,17.40
2013,07,15,07,38,17.40
2013,07,15,07,39,17.40
2013,07,15,07,40,17.50
2013,07,15,07,41,17.50
2013,07,15,07,42,17.50
2013,07,15,07,43,17.50
2013,07,15,07,44,17.60
2013,07,15,07,45,17.60
2013,07,15,07,46,17.60
2013,07,15,07,47,17.70
2013,07,15,07,48,17.70
2013,07,15,07,49,17.80
2013,07,15,07,50,18.00
2013,07,15,07,51,18.10
2013,07,15,07,52,18.20
2013,07,15,07,53,18.30
2013,07,15,07,54,18.40
2013,07,15,07,55,18.40
2013,07,15,07,56,18.50
2013,07,15,07,57,18.60
2013,07,15,07,58,18.50
2013,07,15,07,59,18.50
2013,07,15,08,00,18.50
2013,07,15,08,01,18.50
2013,07,15,08,02,18.50
2013,07,15,08,03,18.50
2013,07,15,08,04,18.50
2013,07,15,08,05,18.60
2013,07,15,08,06,18.60
2013,07,15,08,07,18.60
2013,07,15,08,08,18.60
2013,07,15,08,09,18.60
2013,07,15,08,10,18.60
2013,07,15,08,11,18.60
2013,07,15,08,12,18.60
2013,07,15,08,13,18.60
2013,07,15,08,14,18.50
2013,07,15,08,15,18.50
2013,07,15,08,16,18.50
2013,07,15,08,17,18.50
2013,07,15,08,18,18.50
2013,07,15,08,19,18.60
2013,07,15,08,20,18.60
2013,07,15,08,21,18.60
2013,07,15,08,22,18.70
2013,07,15,08,23,18.70
2013,07,15,08,24,18.80
2013,07,15,08,25,18.80
2013,07,15,08,26,18.90
2013,07,15,08,27,18.90
2013,07,15,08,28,19.00
2013,07,15,08,29,19.00
2013,07,15,08,30,19.00
2013,07,15,08,31,19.00
2013,07,15,08,32,19.00
2013,07,15,08,33,18.90
2013,07,15,08,34,18.90
2013,07,15,08,35,18.90
2013,07,15,08,36,18.80
2013,07,15,08,37,18.80
2013,07,15,08,38,18.90
2013,07,15,08,39,18.90
2013,07,15,08,40,18.90
2013,07,15,08,41,18.90
2013,07,15,08,42,18.90
2013,07,15,08,43,18.90
2013,07,15,08,44,19.00
2013,07,15,08,45,19.10
2013,07,15,08,46,19.10
2013,07,15,08,47,19.20
2013,07,15,08,48,19.20
2013,07,15,08,49,19.20
2013,07,15,08,50,19.20
2013,07,15,08,51,19.20
2013,07,15,08,52,19.20
2013,07,15,08,53,19.20
2013,07,15,08,54,19.20
2013,07,15,08,55,19.20
2013,07,15,08,56,19.20
2013,07,15,08,57,19.20
2013,07,15,08,58,19.20
2013,07,15,08,59,19.20
2013,07,15,09,00,19.20
2013,07,15,09,01,19.20
2013,07,15,09,02,19.30
2013,07,15,09,03,19.30
2013,07,15,09,04,19.30
2013,07,15,09,05,19.40
2013,07,15,09,06,19.40
2013,07,15,09,07,19.40
2013,07,15,09,08,19.50
2013,07,15,09,09,19.50
2013,07,15,09,10,19.60
2013,07,15,09,11,19.70
2013,07,15,09,12,19.70
2013,07,15,09,13,19.70
2013,07,15,09,14,19.60
2013,07,15,09,15,19.60
2013,07,15,09,16,19.60
2013,07,15,09,17,19.60
2013,07,15,09,18,19.70
2013,07,15,09,19,19.70
2013,07,15,09,20,19.80
2013,07,15,09,21,19.80
2013,07,15,09,22,19.80
2013,07,15,09,23,19.80
2013,07,15,09,24,19.80
2013,07,15,09,25,19.90
2013,07,15,09,26,20.00
2013,07,15,09,27,20.10
2013,07,15,09,28,20.10
2013,07,15,09,29,20.20
2013,07,15,09,30,20.20
2013,07,15,09,31,20.20
2013,07,15,09,32,20.20
2013,07,15,09,33,20.30
2013,07,15,09,34,20.50
2013,07,15,09,35,20.50
2013,07,15,09,36,20.60
2013,07,15,09,37,20.60
2013,07,15,09,38,20.60
2013,07,15,09,39,20.60
2013,07,15,09,40,20.60
2013,07,15,09,41,20.50
2013,07,15,09,42,20.50
2013,07,15,09,43,20.50
2013,07,15,09,44,20.50
2013,07,15,09,45,20.50
2013,07,15,09,46,20.50
2013,07,15,09,47,20.60
2013,07,15,09,48,20.60
2013,07,15,09,49,20.60
2013,07,15,09,50,20.70
2013,07,15,09,51,20.70
2013,07,15,09,52,20.60
2013,07,15,09,53,20.60
2013,07,15,09,54,20.60
2013,07,15,09,55,20.60
2013,07,15,09,56,20.60
2013,07,15,09,57,20.70
2013,07,15,09,58,20.80
2013,07,15,09,59,20.80
2013,07,15,10,00,20.90
2013,07,15,10,01,21.00
2013,07,15,10,02,21.10
2013,07,15,10,03,21.20
2013,07,15,10,04,21.20
2013,07,15,10,05,21.30
2013,07,15,10,06,21.30
2013,07,15,10,07,21.40
2013,07,15,10,08,21.40
2013,07,15,10,09,21.40
2013,07,15,10,10,21.40
2013,07,15,10,11,21.30
2013,07,15,10,12,21.20
2013,07,15,10,13,21.10
2013,07,15,10,14,21.10
2013,07,15,10,15,21.00
2013,07,15,10,16,21.00
2013,07,15,10,17,21.00
2013,07,15,10,18,21.00
2013,07,15,10,19,20.90
2013,07,15,10,20,21.00
2013,07,15,10,21,21.00
2013,07,15,10,22,21.10
2013,07,15,10,23,21.10
2013,07,15,10,24,21.10
2013,07,15,10,25,21.20
2013,07,15,10,26,21.20
2013,07,15,10,27,21.20
2013,07,15,10,28,21.10
2013,07,15,10,29,21.10
2013,07,15,10,30,21.10
2013,07,15,10,31,21.20
2013,07,15,10,32,21.20
2013,07,15,10,33,21.20
2013,07,15,10,34,21.20
2013,07,15,10,35,21.20
2013,07,15,10,36,21.20
2013,07,15,10,37,21.20
2013,07,15,10,38,21.20
2013,07,15,10,39,21.10
2013,07,15,10,40,21.10
2013,07,15,10,41,21.10
2013,07,15,10,42,21.20
2013,07,15,10,43,21.20
2013,07,15,10,44,21.20
2013,07,15,10,45,21.20
2013,07,15,10,46,21.20
2013,07,15,10,47,21.20
2013,07,15,10,48,21.20
2013,07,15,10,49,21.20
2013,07,15,10,50,21.30
2013,07,15,10,51,21.30
2013,07,15,10,52,21.30
2013,07,15,10,53,21.20
2013,07,15,10,54,21.30
2013,07,15,10,55,21.30
2013,07,15,10,56,21.30
2013,07,15,10,57,21.30
2013,07,15,10,58,21.40
2013,07,15,10,59,21.40
2013,07,15,11,00,21.40
2013,07,15,11,01,21.40
2013,07,15,11,02,21.50
2013,07,15,11,03,21.60
2013,07,15,11,04,21.70
2013,07,15,11,05,21.70
2013,07,15,11,06,21.80
2013,07,15,11,07,21.80
2013,07,15,11,08,21.90
2013,07,15,11,09,21.90
2013,07,15,11,10,21.80
2013,07,15,11,11,21.70
2013,07,15,11,12,21.60
2013,07,15,11,13,21.60
2013,07,15,11,14,21.60
2013,07,15,11,15,21.60
2013,07,15,11,16,21.70
2013,07,15,11,17,21.60
2013,07,15,11,18,21.70
2013,07,15,11,19,21.70
2013,07,15,11,20,21.80
2013,07,15,11,21,21.80
2013,07,15,11,22,21.80
2013,07,15,11,23,21.80
2013,07,15,11,24,21.90
2013,07,15,11,25,22.00
2013,07,15,11,26,22.00
2013,07,15,11,27,22.00
2013,07,15,11,28,22.10
2013,07,15,11,29,22.10
2013,07,15,11,30,22.10
2013,07,15,11,31,22.10
2013,07,15,11,32,22.20
2013,07,15,11,33,22.20
2013,07,15,11,34,22.20
2013,07,15,11,35,22.30
2013,07,15,11,36,22.30
2013,07,15,11,37,22.30
2013,07,15,11,38,22.20
2013,07,15,11,39,22.10
2013,07,15,11,40,22.00
2013,07,15,11,41,21.90
2013,07,15,11,42,21.90
2013,07,15,11,43,21.90
2013,07,15,11,44,21.90
2013,07,15,11,45,22.00
2013,07,15,11,46,22.10
2013,07,15,11,47,22.00
2013,07,15,11,48,22.00
2013,07,15,11,49,22.00
2013,07,15,11,50,22.10
2013,07,15,11,51,22.10
2013,07,15,11,52,22.20
2013,07,15,11,53,22.20
2013,07,15,11,54,22.20
2013,07,15,11,55,22.30
2013,07,15,11,56,22.40
2013,07,15,11,57,22.50
2013,07,15,11,58,22.50
2013,07,15,11,59,22.40
2013,07,15,12,00,22.40
2013,07,15,12,01,22.30
2013,07,15,12,02,22.30
2013,07,15,12,03,22.30
2013,07,15,12,04,22.30
2013,07,15,12,05,22.40
2013,07,15,12,06,22.40
2013,07,15,12,07,22.40
2013,07,15,12,08,22.40
2013,07,15,12,09,22.30
2013,07,15,12,10,22.30
2013,07,15,12,11,22.20
2013,07,15,12,12,22.10
2013,07,15,12,13,22.10
2013,07,15,12,14,22.10
2013,07,15,12,15,22.10
2013,07,15,12,16,22.20
2013,07,15,12,17,22.40
2013,07,15,12,18,22.50
2013,07,15,12,19,22.60
2013,07,15,12,20,22.70
2013,07,15,12,21,22.70
2013,07,15,12,22,22.60
2013,07,15,12,23,22.60
2013,07,15,12,24,22.70
2013,07,15,12,25,22.70
2013,07,15,12,26,22.80
2013,07,15,12,27,22.70
2013,07,15,12,28,22.80
2013,07,15,12,29,22.80
2013,07,15,12,30,22.80
2013,07,15,12,31,22.80
2013,07,15,12,32,22.80
2013,07,15,12,33,22.80
2013,07,15,12,34,22.80
2013,07,15,12,35,22.90
2013,07,15,12,36,22.90
2013,07,15,12,37,23.00
2013,07,15,12,38,23.00
2013,07,15,12,39,23.10
2013,07,15,12,40,23.10
2013,07,15,12,41,23.20
2013,07,15,12,42,23.20
2013,07,15,12,43,23.10
2013,07,15,12,44,23.10
2013,07,15,12,45,23.10
2013,07,15,12,46,23.10
2013,07,15,12,47,23.10
2013,07,15,12,48,23.20
2013,07,15,12,49,23.30
2013,07,15,12,50,23.30
2013,07,15,12,51,23.30
2013,07,15,12,52,23.30
2013,07,15,12,53,23.30
2013,07,15,12,54,23.20
2013,07,15,12,55,23.20
2013,07,15,12,56,23.20
2013,07,15,12,57,23.20
2013,07,15,12,58,23.20
2013,07,15,12,59,23.20
2013,07,15,13,00,23.30
2013,07,15,13,01,23.40
2013,07,15,13,02,23.40
2013,07,15,13,03,23.40
2013,07,15,13,04,23.30
2013,07,15,13,05,23.40
2013,07,15,13,06,23.40
2013,07,15,13,07,23.40
2013,07,15,13,08,23.40
2013,07,15,13,09,23.40
2013,07,15,13,10,23.40
2013,07,15,13,11,23.40
2013,07,15,13,12,23.40
2013,07,15,13,13,23.50
2013,07,15,13,14,23.50
2013,07,15,13,15,23.60
2013,07,15,13,16,23.60
2013,07,15,13,17,23.60
2013,07,15,13,18,23.60
2013,07,15,13,19,23.60
2013,07,15,13,20,23.60
2013,07,15,13,21,23.70
2013,07,15,13,22,23.70
2013,07,15,13,23,23.80
2013,07,15,13,24,23.90
2013,07,15,13,25,23.80
2013,07,15,13,26,23.80
2013,07,15,13,27,23.80
2013,07,15,13,28,23.80
2013,07,15,13,29,23.90
2013,07,15,13,30,23.90
2013,07,15,13,31,24.00
2013,07,15,13,32,24.00
2013,07,15,13,33,23.90
2013,07,15,13,34,23.90
2013,07,15,13,35,23.90
2013,07,15,13,36,24.00
2013,07,15,13,37,24.00
2013,07,15,13,38,24.10
2013,07,15,13,39,24.10
2013,07,15,13,40,24.20
2013,07,15,13,41,24.30
2013,07,15,13,42,24.30
2013,07,15,13,43,24.30
2013,07,15,13,44,24.40
2013,07,15,13,45,24.40
2013,07,15,13,46,24.50
2013,07,15,13,47,24.50
2013,07,15,13,48,24.50
2013,07,15,13,49,24.60
2013,07,15,13,50,24.60
2013,07,15,13,51,24.70
2013,07,15,13,52,24.70
2013,07,15,13,53,24.70
2013,07,15,13,54,24.70
2013,07,15,13,55,24.60
2013,07,15,13,56,24.70
2013,07,15,13,57,24.70
2013,07,15,13,58,24.80
2013,07,15,13,59,24.90
2013,07,15,14,00,25.00
2013,07,15,14,01,25.10
2013,07,15,14,02,25.20
2013,07,15,14,03,25.20
2013,07,15,14,04,25.30
2013,07,15,14,05,25.30
2013,07,15,14,06,25.40
2013,07,15,14,07,25.40
2013,07,15,14,08,25.30
2013,07,15,14,09,25.30
2013,07,15,14,10,25.30
2013,07,15,14,11,25.40
2013,07,15,14,12,25.40
2013,07,15,14,13,25.40
2013,07,15,14,14,25.30
2013,07,15,14,15,25.30
2013,07,15,14,16,25.30
2013,07,15,14,17,25.30
2013,07,15,14,18,25.30
2013,07,15,14,19,25.30
2013,07,15,14,20,25.30
2013,07,15,14,21,25.20
2013,07,15,14,22,25.20
2013,07,15,14,23,25.20
2013,07,15,14,24,25.20
2013,07,15,14,25,25.20
2013,07,15,14,26,25.30
2013,07,15,14,27,25.20
2013,07,15,14,28,25.30
2013,07,15,14,29,25.40
2013,07,15,14,30,25.40
2013,07,15,14,31,25.50
2013,07,15,14,32,25.50
2013,07,15,14,33,25.60
2013,07,15,14,34,25.50
2013,07,15,14,35,25.40
2013,07,15,14,36,25.40
2013,07,15,14,37,25.50
2013,07,15,14,38,25.50
2013,07,15,14,39,25.40
2013,07,15,14,40,25.30
2013,07,15,14,41,25.30
2013,07,15,14,42,25.30
2013,07,15,14,43,25.20
2013,07,15,14,44,25.20
2013,07,15,14,45,25.20
2013,07,15,14,46,25.20
2013,07,15,14,47,25.20
2013,07,15,14,48,25.20
2013,07,15,14,49,25.30
2013,07,15,14,50,25.30
2013,07,15,14,51,25.40
2013,07,15,14,52,25.50
2013,07,15,14,53,25.50
2013,07,15,14,54,25.60
2013,07,15,14,55,25.70
2013,07,15,14,56,25.80
2013,07,15,14,57,25.80
2013,07,15,14,58,25.80
2013,07,15,14,59,25.90
2013,07,15,15,00,25.90
2013,07,15,15,01,25.90
2013,07,15,15,02,25.90
2013,07,15,15,03,25.90
2013,07,15,15,04,25.90
2013,07,15,15,05,25.90
2013,07,15,15,06,25.90
2013,07,15,15,07,25.90
2013,07,15,15,08,25.90
2013,07,15,15,09,25.90
2013,07,15,15,10,25.80
2013,07,15,15,11,25.80
2013,07,15,15,12,25.90
2013,07,15,15,13,25.90
2013,07,15,15,14,25.90
2013,07,15,15,15,25.90
2013,07,15,15,16,26.00
2013,07,15,15,17,26.00
2013,07,15,15,18,26.00
2013,07,15,15,19,26.10
2013,07,15,15,20,26.10
2013,07,15,15,21,26.20
2013,07,15,15,22,26.20
2013,07,15,15,23,26.10
2013,07,15,15,24,26.10
2013,07,15,15,25,26.20
2013,07,15,15,26,26.20
2013,07,15,15,27,26.20
2013,07,15,15,28,26.20
2013,07,15,15,29,26.20
2013,07,15,15,30,26.30
2013,07,15,15,31,26.30
2013,07,15,15,32,26.40
2013,07,15,15,33,26.50
2013,07,15,15,34,26.60
2013,07,15,15,35,26.60
2013,07,15,15,36,26.60
2013,07,15,15,37,26.60
2013,07,15,15,38,26.60
2013,07,15,15,39,26.60
2013,07,15,15,40,26.70
2013,07,15,15,41,26.80
2013,07,15,15,42,26.70
2013,07,15,15,43,26.70
2013,07,15,15,44,26.60
2013,07,15,15,45,26.50
2013,07,15,15,46,26.40
2013,07,15,15,47,26.30
2013,07,15,15,48,26.20
2013,07,15,15,49,26.20
2013,07,15,15,50,26.20
2013,07,15,15,51,26.20
2013,07,15,15,52,26.00
2013,07,15,15,53,25.90
2013,07,15,15,54,25.80
2013,07,15,15,55,25.70
2013,07,15,15,56,25.70
2013,07,15,15,57,25.70
2013,07,15,15,58,25.60
2013,07,15,15,59,25.50
2013,07,15,16,00,25.50
2013,07,15,16,01,25.50
2013,07,15,16,02,25.50
2013,07,15,16,03,25.60
2013,07,15,16,04,25.70
2013,07,15,16,05,25.60
2013,07,15,16,06,25.60
2013,07,15,16,07,25.60
2013,07,15,16,08,25.60
2013,07,15,16,09,25.60
2013,07,15,16,10,25.60
2013,07,15,16,11,25.60
2013,07,15,16,12,25.60
2013,07,15,16,13,25.70
2013,07,15,16,14,25.70
2013,07,15,16,15,25.70
2013,07,15,16,16,25.70
2013,07,15,16,17,25.70
2013,07,15,16,18,25.70
2013,07,15,16,19,25.70
2013,07,15,16,20,25.70
2013,07,15,16,21,25.70
2013,07,15,16,22,25.70
2013,07,15,16,23,25.70
2013,07,15,16,24,25.70
2013,07,15,16,25,25.70
2013,07,15,16,26,25.60
2013,07,15,16,27,25.60
2013,07,15,16,28,25.60
2013,07,15,16,29,25.50
2013,07,15,16,30,25.40
2013,07,15,16,31,25.40
2013,07,15,16,32,25.40
2013,07,15,16,33,25.40
2013,07,15,16,34,25.40
2013,07,15,16,35,25.50
2013,07,15,16,36,25.50
2013,07,15,16,37,25.50
2013,07,15,16,38,25.50
2013,07,15,16,39,25.50
2013,07,15,16,40,25.60
2013,07,15,16,41,25.60
2013,07,15,16,42,25.60
2013,07,15,16,43,25.60
2013,07,15,16,44,25.60
2013,07,15,16,45,25.60
2013,07,15,16,46,25.70
2013,07,15,16,47,25.70
2013,07,15,16,48,25.70
2013,07,15,16,49,25.70
2013,07,15,16,50,25.80
2013,07,15,16,51,25.80
2013,07,15,16,52,25.90
2013,07,15,16,53,25.90
2013,07,15,16,54,25.90
2013,07,15,16,55,26.00
2013,07,15,16,56,26.10
2013,07,15,16,57,26.10
2013,07,15,16,58,26.10
2013,07,15,16,59,26.10
2013,07,15,17,00,26.00
2013,07,15,17,01,25.90
2013,07,15,17,02,25.90
2013,07,15,17,03,25.90
2013,07,15,17,04,26.00
2013,07,15,17,05,26.00
2013,07,15,17,06,26.00
2013,07,15,17,07,26.00
2013,07,15,17,08,26.00
2013,07,15,17,09,25.90
2013,07,15,17,10,25.90
2013,07,15,17,11,25.90
2013,07,15,17,12,26.00
2013,07,15,17,13,26.10
2013,07,15,17,14,26.10
2013,07,15,17,15,26.10
2013,07,15,17,16,26.00
2013,07,15,17,17,26.00
2013,07,15,17,18,26.00
2013,07,15,17,19,26.10